TimeCAT,TemperatureF,Dew PointF,Humidity,Sea Level PressureIn,VisibilityMPH,Wind Direction,Wind SpeedMPH,Gust SpeedMPH,PrecipitationIn,Events,Conditions,WindDirDegrees,DateUTC
12:00 AM,66.2,59.0,78,30.04,6.2,East,21.9,-,N/A,,Partly Cloudy,80,2012-11-08 22:00:00
2:00 AM,65,58,71,,6,ENE,17.3,,,,Mostly Cloudy,60,2012-11-09 00:00:00
2:00 AM,66.2,57.2,73,30.01,6.2,ENE,17.3,-,N/A,,Mostly Cloudy,60,2012-11-09 00:00:00
3:00 AM,66.2,57.2,73,30.01,6.2,ENE,18.4,-,N/A,,Overcast,70,2012-11-09 01:00:00
4:00 AM,64.4,57.2,77,30.01,6.2,ENE,18.4,-,N/A,,Overcast,70,2012-11-09 02:00:00
5:00 AM,64.4,57.2,77,30.01,6.2,ENE,15.0,-,N/A,,Overcast,60,2012-11-09 03:00:00
6:00 AM,64.4,57.2,77,30.01,6.2,ENE,15.0,-,N/A,,Overcast,60,2012-11-09 04:00:00
7:00 AM,66.2,57.2,73,30.04,6.2,NE,15.0,-,N/A,,Overcast,50,2012-11-09 05:00:00
8:00 AM,66,57,65,,6,ENE,15.0,,,,Overcast,60,2012-11-09 06:00:00
8:00 AM,66.2,57.2,73,30.04,6.2,NE,15.0,-,N/A,,Overcast,50,2012-11-09 06:00:00
9:00 AM,66.2,57.2,73,30.06,6.2,NNE,15.0,-,N/A,,Overcast,30,2012-11-09 07:00:00
10:00 AM,66.2,57.2,73,30.06,6.2,NE,16.1,-,N/A,,Overcast,40,2012-11-09 08:00:00
11:00 AM,68.0,55.4,64,30.04,6.2,NE,16.1,-,N/A,,Overcast,40,2012-11-09 09:00:00
12:00 PM,71.6,55.4,57,30.01,6.2,NE,16.1,-,N/A,,Mostly Cloudy,40,2012-11-09 10:00:00
1:00 PM,75.2,55.4,50,29.98,6.2,NE,15.0,-,N/A,,Mostly Cloudy,50,2012-11-09 11:00:00
2:00 PM,77,55,37,,6,NE,13.8,,,,Partly Cloudy,50,2012-11-09 12:00:00
2:00 PM,77.0,55.4,47,29.95,6.2,NE,13.8,-,N/A,,Scattered Clouds,50,2012-11-09 12:00:00
3:00 PM,78.8,55.4,44,29.95,6.2,NE,10.4,-,N/A,,Scattered Clouds,40,2012-11-09 13:00:00
4:00 PM,78.8,55.4,44,29.92,6.2,NE,10.4,-,N/A,,Scattered Clouds,40,2012-11-09 14:00:00
5:00 PM,78.8,55.4,44,29.89,-9999.0,ENE,13.8,-,N/A,,Clear,60,2012-11-09 15:00:00
6:00 PM,77.0,55.4,47,29.89,-9999.0,NE,11.5,-,N/A,,Clear,50,2012-11-09 16:00:00
7:00 PM,75.2,57.2,53,29.92,6.2,ENE,12.7,-,N/A,,Partly Cloudy,70,2012-11-09 17:00:00
8:00 PM,73,56,46,,6,ENE,11.5,,,Thunderstorm,Thunderstorm,60,2012-11-09 18:00:00
8:00 PM,73.4,57.2,57,29.92,6.2,ENE,11.5,-,N/A,Thunderstorm,Thunderstorm,60,2012-11-09 18:00:00
9:00 PM,73.4,57.2,57,29.98,6.2,NE,10.4,-,N/A,Thunderstorm,Thunderstorm,40,2012-11-09 19:00:00
10:00 PM,69.8,59.0,68,29.98,6.2,Variable,6.9,-,N/A,Thunderstorm,Thunderstorm,0,2012-11-09 20:00:00
11:00 PM,71.6,59.0,64,29.95,6.2,ESE,18.4,-,N/A,Thunderstorm,Thunderstorm,110,2012-11-09 21:00:00